Peotone Weather
Station Historical Data
 
Daily Summary for January 24, 2018 Units:  English    Metric   Both
« Previous Day
Next Day »
Daily Weekly Monthly Yearly Custom
  Current: High: Low: Average:
Temperature: 27.5 °F 29.6 °F 27.5 °F 28.8 °F
Dew Point: 25.8 °F 27.0 °F 25.8 °F 26.3 °F
Humidity: 93% 93% 87% 90%
Wind Speed: 5.8mph 13.8mph 1.1mph 5.1mph
Wind Gust: 8.1mph 13.8mph - -
WindWNW - - WNW
Pressure: 30.24 in 30.24 in 30.19 in -
Precipitation: 0.00 in      
Historical Graphs
 
 
Tabular Data for January 24, 2018
Time Temperature Dew Point Pressure Wind Wind Speed Wind Gust Humidity Rainfall Rate (Hourly) solar Conditions
00:00 29.4 °F 26.3 °F 30.19 in North 2.3 mph 5.8 mph 88% 0.00 in 0.00 W/m2
00:04 29.4 °F 26.0 °F 30.19 in NNE 2.3 mph 6.9 mph 87% 0.00 in 0.00 W/m2
00:09 29.4 °F 26.3 °F 30.19 in NNW 3.4 mph 5.8 mph 88% 0.00 in 0.00 W/m2
00:10 29.4 °F 26.3 °F 30.19 in North 2.3 mph 5.8 mph 88% 0.00 in 0.00 W/m2
00:14 29.4 °F 26.3 °F 30.19 in NNW 3.4 mph 6.9 mph 88% 0.00 in 0.00 W/m2
00:19 29.4 °F 26.3 °F 30.19 in NNW 2.3 mph 5.8 mph 88% 0.00 in 0.00 W/m2
00:24 29.4 °F 26.3 °F 30.19 in NNW 3.4 mph 6.9 mph 88% 0.00 in 0.00 W/m2
00:25 29.4 °F 26.3 °F 30.19 in NW 1.1 mph 6.9 mph 88% 0.00 in 0.00 W/m2
00:30 29.4 °F 26.3 °F 30.20 in NW 3.5 mph 5.8 mph 88% 0.00 in 0.00 W/m2
00:34 29.4 °F 26.3 °F 30.20 in NNW 2.3 mph 5.8 mph 88% 0.00 in 0.00 W/m2
00:40 29.4 °F 26.3 °F 30.19 in NNW 4.6 mph 5.8 mph 88% 0.00 in 0.00 W/m2
00:45 29.4 °F 26.3 °F 30.20 in NW 1.1 mph 5.8 mph 88% 0.00 in 0.00 W/m2
00:50 29.4 °F 26.3 °F 30.20 in NW 1.1 mph 3.4 mph 88% 0.00 in 0.00 W/m2
00:55 29.4 °F 26.3 °F 30.20 in NNW 2.3 mph 5.8 mph 88% 0.00 in 0.00 W/m2
01:00 29.4 °F 26.3 °F 30.20 in NNW 4.6 mph 5.8 mph 88% 0.00 in 0.00 W/m2
01:05 29.4 °F 26.3 °F 30.20 in NNW 2.3 mph 5.8 mph 88% 0.00 in 0.00 W/m2
01:10 29.4 °F 26.3 °F 30.20 in NNW 2.3 mph 4.6 mph 88% 0.00 in 0.00 W/m2
01:15 29.4 °F 26.3 °F 30.20 in NNW 1.1 mph 2.3 mph 88% 0.00 in 0.00 W/m2
01:20 29.4 °F 26.3 °F 30.20 in NNW 2.3 mph 3.4 mph 88% 0.00 in 0.00 W/m2
01:25 29.4 °F 26.3 °F 30.20 in NNW 1.1 mph 1.1 mph 88% 0.00 in 0.00 W/m2
01:30 29.4 °F 26.3 °F 30.21 in NNW 1.1 mph 1.1 mph 88% 0.00 in 0.00 W/m2
01:35 29.4 °F 26.3 °F 30.21 in NW 3.4 mph 4.6 mph 88% 0.00 in 0.00 W/m2
01:40 29.4 °F 26.6 °F 30.21 in WNW 8.1 mph 9.2 mph 89% 0.00 in 0.00 W/m2
01:41 29.4 °F 26.6 °F 30.21 in WNW 6.9 mph 8.1 mph 89% 0.00 in 0.00 W/m2
01:45 29.4 °F 26.3 °F 30.21 in WNW 3.5 mph 9.2 mph 88% 0.00 in 0.00 W/m2
01:46 29.4 °F 26.3 °F 30.22 in WNW 3.4 mph 4.6 mph 88% 0.00 in 0.00 W/m2
01:50 29.4 °F 26.3 °F 30.22 in WSW 4.6 mph 9.2 mph 88% 0.00 in 0.00 W/m2
01:51 29.4 °F 26.3 °F 30.22 in WSW 4.6 mph 4.6 mph 88% 0.00 in 0.00 W/m2
01:55 29.4 °F 26.3 °F 30.22 in WNW 4.6 mph 5.8 mph 88% 0.00 in 0.00 W/m2
01:56 29.4 °F 26.3 °F 30.22 in WNW 2.3 mph 4.6 mph 88% 0.00 in 0.00 W/m2
02:00 29.4 °F 26.3 °F 30.22 in WNW 2.3 mph 4.6 mph 88% 0.00 in 0.00 W/m2
02:01 29.4 °F 26.3 °F 30.22 in WNW 5.8 mph 5.8 mph 88% 0.00 in 0.00 W/m2
02:05 29.4 °F 26.6 °F 30.22 in NNW 1.1 mph 5.8 mph 89% 0.00 in 0.00 W/m2
02:06 29.4 °F 26.6 °F 30.22 in NNW 3.4 mph 3.4 mph 89% 0.00 in 0.00 W/m2
02:10 29.4 °F 26.3 °F 30.22 in NNW 2.3 mph 4.6 mph 88% 0.00 in 0.00 W/m2
02:11 29.4 °F 26.6 °F 30.22 in NNW 2.3 mph 4.6 mph 89% 0.00 in 0.00 W/m2
02:16 29.5 °F 26.7 °F 30.22 in WNW 4.6 mph 6.9 mph 89% 0.00 in 0.00 W/m2
02:20 29.5 °F 26.7 °F 30.22 in West 2.3 mph 6.9 mph 89% 0.00 in 0.00 W/m2
02:21 29.5 °F 26.7 °F 30.22 in WSW 2.3 mph 5.8 mph 89% 0.00 in 0.00 W/m2
02:26 29.5 °F 26.7 °F 30.23 in West 3.4 mph 6.9 mph 89% 0.00 in 0.00 W/m2
02:30 29.6 °F 27.0 °F 30.22 in SW 9.2 mph 9.2 mph 90% 0.00 in 0.00 W/m2
02:31 29.6 °F 27.0 °F 30.22 in West 9.2 mph 9.2 mph 90% 0.00 in 0.00 W/m2
02:35 29.5 °F 26.9 °F 30.22 in West 4.6 mph 11.5 mph 90% 0.00 in 0.00 W/m2
02:36 29.4 °F 26.8 °F 30.22 in West 5.8 mph 5.8 mph 90% 0.00 in 0.00 W/m2
02:40 29.3 °F 26.7 °F 30.22 in WSW 8.1 mph 10.4 mph 90% 0.00 in 0.00 W/m2
02:42 29.2 °F 26.6 °F 30.22 in WSW 9.2 mph 10.3 mph 90% 0.00 in 0.00 W/m2
02:50 29.0 °F 26.7 °F 30.22 in West 8.1 mph 10.4 mph 91% 0.00 in 0.00 W/m2
02:52 29.0 °F 26.7 °F 30.22 in WSW 5.8 mph 8.1 mph 91% 0.00 in 0.00 W/m2
03:04 28.8 °F 26.8 °F 30.22 in SW 8.1 mph 8.1 mph 92% 0.00 in 0.00 W/m2
03:09 28.8 °F 26.5 °F 30.22 in WSW 5.8 mph 8.1 mph 91% 0.00 in 0.00 W/m2
03:14 28.6 °F 26.6 °F 30.22 in West 4.6 mph 11.5 mph 92% 0.00 in 0.00 W/m2
03:19 28.6 °F 26.6 °F 30.22 in WSW 13.8 mph 13.8 mph 92% 0.00 in 0.00 W/m2
03:29 28.4 °F 26.4 °F 30.22 in WSW 6.9 mph 11.5 mph 92% 0.00 in 0.00 W/m2
03:34 28.3 °F 26.3 °F 30.22 in West 6.9 mph 10.3 mph 92% 0.00 in 0.00 W/m2
03:39 28.3 °F 26.3 °F 30.22 in West 5.8 mph 10.3 mph 92% 0.00 in 0.00 W/m2
03:45 28.3 °F 26.3 °F 30.23 in West 9.2 mph 12.6 mph 92% 0.00 in 0.00 W/m2
03:50 28.2 °F 26.4 °F 30.23 in WSW 6.9 mph 11.5 mph 93% 0.00 in 0.00 W/m2
03:55 28.1 °F 26.1 °F 30.23 in NW 9.2 mph 13.8 mph 92% 0.00 in 0.00 W/m2
04:00 28.0 °F 26.0 °F 30.22 in SW 10.3 mph 11.5 mph 92% 0.00 in 0.00 W/m2
04:05 28.0 °F 26.2 °F 30.23 in WSW 5.8 mph 12.6 mph 93% 0.00 in 0.00 W/m2
04:10 27.9 °F 26.1 °F 30.23 in WSW 8.1 mph 11.5 mph 93% 0.00 in 0.00 W/m2
04:11 27.9 °F 26.1 °F 30.23 in WNW 8.1 mph 8.1 mph 93% 0.00 in 0.00 W/m2
04:16 27.8 °F 26.0 °F 30.23 in WSW 6.9 mph 9.2 mph 93% 0.00 in 0.00 W/m2
04:21 27.8 °F 26.0 °F 30.23 in WSW 8.1 mph 11.5 mph 93% 0.00 in 0.00 W/m2
04:26 27.8 °F 26.0 °F 30.23 in West 8.1 mph 10.3 mph 93% 0.00 in 0.00 W/m2
04:31 27.7 °F 25.9 °F 30.23 in SW 6.9 mph 9.2 mph 93% 0.00 in 0.00 W/m2
04:36 27.6 °F 25.8 °F 30.23 in WSW 4.6 mph 9.2 mph 93% 0.00 in 0.00 W/m2
04:42 27.6 °F 25.8 °F 30.23 in WSW 10.3 mph 10.3 mph 93% 0.00 in 0.00 W/m2
04:47 27.6 °F 25.8 °F 30.23 in West 5.8 mph 6.9 mph 93% 0.00 in 0.00 W/m2
04:52 27.6 °F 25.8 °F 30.23 in WSW 2.3 mph 6.9 mph 93% 0.00 in 0.00 W/m2
04:57 27.6 °F 25.8 °F 30.23 in NW 6.9 mph 9.2 mph 93% 0.00 in 0.00 W/m2
05:02 27.5 °F 25.8 °F 30.23 in West 6.9 mph 12.6 mph 93% 0.00 in 0.00 W/m2
05:07 27.5 °F 25.8 °F 30.23 in WSW 5.8 mph 10.3 mph 93% 0.00 in 0.00 W/m2
05:12 27.5 °F 25.8 °F 30.24 in WSW 5.8 mph 8.1 mph 93% 0.00 in 0.00 W/m2
05:17 27.6 °F 25.8 °F 30.24 in West 6.9 mph 10.3 mph 93% 0.00 in 0.00 W/m2
05:22 27.6 °F 25.8 °F 30.24 in West 9.2 mph 9.2 mph 93% 0.00 in 0.00 W/m2
05:27 27.5 °F 25.8 °F 30.24 in SW 4.6 mph 10.3 mph 93% 0.00 in 0.00 W/m2
05:32 27.5 °F 25.8 °F 30.24 in WSW 9.2 mph 9.2 mph 93% 0.00 in 0.00 W/m2
05:37 27.5 °F 25.8 °F 30.24 in WSW 6.9 mph 8.1 mph 93% 0.00 in 0.00 W/m2
05:43 27.5 °F 25.8 °F 30.24 in WSW 4.6 mph 6.9 mph 93% 0.00 in 0.00 W/m2
05:48 27.5 °F 25.8 °F 30.24 in WNW 5.8 mph 8.1 mph 93% 0.00 in 0.00 W/m2
peotoneweather.com
Compliments of Weather Underground - 2.25 mb